Hourly Weather Roundup
Issued by NWS Central Illinois

Home | Current Version | Previous Version | Text Only | Print | Product List | Glossary On
Versions: 1 2 3 4 5 6 7 8 9 10 11 12 13 14 15 16 17 18 19 20 21 22 23 24 25 26 27 28 29 30 31 32 33 34 35 36 37 38 39 40 41 42 43 44 45 46 47 48 49 50
000
NZUS43 KILX 301310
HWRILX

AREA WEATHER ROUNDUP
NATIONAL WEATHER SERVICE, LINCOLN IL
800 AM CDT THU OCT 30 2014


CITY           SKY/WX    TMP DP  RH WIND       PRES   REMARKS
BLOOMINGTON    PTCLDY    35  33  92 S6        30.15F WCI  30
CHAMPAIGN      CLEAR     33  30  88 S5        30.16S WCI  29
DECATUR        CLEAR     34  32  92 CALM      30.16S
FLORA          CLEAR     34  34 100 CALM      30.18F
GALESBURG      MOCLDY    35  33  92 CALM      30.11F
JACKSONVILLE   PTCLDY    43  37  79 S9        30.13S
LACON          PTCLDY    32  30  94 CALM      30.13S
LAWRENCEVILLE  CLEAR     36  32  85 CALM      30.19R
LITCHFIELD     CLEAR     37  34  90 SE7       30.15F WCI  31
$$


CITY           SKY/WX    TMP DP  RH WIND       PRES   REMARKS
LINCOLN        PTCLDY    33  32  97 CALM      30.15F
MACOMB         PTCLDY    32  31  97 CALM      30.13S
MATTOON        CLEAR     34  32  92 S3        30.16R
MT CARMEL AP   CLEAR     34  34 100 CALM      30.18S FOG
OLNEY-NOBLE AP CLEAR     32  32 100 CALM      30.19R FOG
PARIS          CLEAR     31  31 100 CALM      30.18F
PEORIA         MOCLDY    38  33  82 CALM      30.14F
PONTIAC        PTCLDY    32  31  97 SE3       30.16S
RANTOUL        CLEAR     33  31  95 CALM      30.16S
ROBINSON         N/A     33  33 100 CALM      30.19S FOG
SPRINGFIELD    PTCLDY    38  34  85 S7        30.15S WCI  33
TAYLORVILLE    CLEAR     34  32  93 SE5       30.15S WCI  30
$$

...REGIONAL REPORTS...


CITY           SKY/WX    TMP DP  RH WIND       PRES   REMARKS
CHICAGO O`HARE MOCLDY    34  31  88 CALM      30.13S
KANKAKEE       PTCLDY    32  31  96 CALM      30.16S
MOLINE         MOCLDY    34  31  88 E3        30.10F
MOUNT VERNON   CLEAR     32  27  80 CALM      30.18R
PITTSFIELD     CLOUDY    42  38  86 SE3       30.13S
QUINCY         CLOUDY    43  35  73 SE7       30.10S
ROCKFORD       CLOUDY    33  30  88 CALM      30.14R
$$


CITY           SKY/WX    TMP DP  RH WIND       PRES   REMARKS
BURLINGTON     CLOUDY    39  35  86 S5        30.10S
CEDAR RAPIDS   CLOUDY    39  35  86 S6        30.08S WCI  35
DES MOINES     MOCLDY    44  35  70 SE12      30.02F
KIRKSVILLE     LGT RAIN  44  39  82 SE14      30.06F
OTTUMWA        CLOUDY    43  35  73 SE7       30.06S
ST LOUIS       PTCLDY    42  36  79 E5        30.15S
$$


CITY           SKY/WX    TMP DP  RH WIND       PRES   REMARKS
TERRE HAUTE    CLEAR     32  32 100 CALM      30.18S
EVANSVILLE     CLEAR     38  36  92 CALM      30.19R
INDIANAPOLIS   PTCLDY    37  31  78 CALM      30.17R
LAFAYETTE      CLEAR     32  32 100 CALM      30.18R FOG
MADISON        CLOUDY    36  33  89 CALM      30.10S
MILWAUKEE      MOCLDY    37  32  82 CALM      30.10F
$$





USA.gov is the U.S. government's official web portal to all federal, state and local government web resources and services.